Location: Chircca
(13.7944°S, 72.0608°W)
Time: 05:27:29
(UTC+00:00)

Cosmos 1655 Rocket - Pass Details

Date: 14 July 2020
Orbit: 970 x 1006 km, 83.0° (Epoch: 14 August)

Event Time Altitude Azimuth Distance (km) Brightness Sun altitude
Rises 10:26:38 0° 357° (N) 3,673 7.2 -11.3°
Reaches altitude 10° 10:29:08 10° 357° (N) 2,724 6.6 -10.7°
Maximum altitude 10:35:23 89° 84° (E) 982 4.1 -9.3°
Drops below altitude 10° 10:41:39 10° 176° (S) 2,727 6.2 -7.9°
Sets 10:44:10 0° 176° (S) 3,677 6.8 -7.3°
